Location: Newark
(42.7133°N, 87.7910°W)
Time: 15:12:32
(UTC+00:00)

Tiros 1 - Pass Details

Date: 28 September 2019
Orbit: 630 x 664 km, 48.4° (Epoch: 17 October)

Event Time Altitude Azimuth Distance (km) Brightness Sun altitude
Rises 15:38:14 0° 231° (SW) 2,982 10.6 37.3°
Reaches altitude 10° 15:40:36 10° 228° (SW) 2,070 9.9 37.5°
Maximum altitude 15:45:19 63° 148° (SSE) 734 8.9 38.1°
Drops below altitude 10° 15:50:01 10° 68° (ENE) 2,060 10.0 38.6°
Sets 15:52:22 0° 65° (ENE) 2,968 10.7 38.9°
